Date,TemperatureHighF,TemperatureAvgF,TemperatureLowF,DewpointHighF,DewpointAvgF,DewpointLowF,HumidityHigh,HumidityAvg,HumidityLow,PressureMaxIn,PressureMinIn,WindSpeedMaxMPH,WindSpeedAvgMPH,GustSpeedMaxMPH,PrecipitationSumIn
2013-3-1,62.0,45.7,32.0,23.0,16.9,6.0,52,32,22,30.42,30.30,8,2,12,0.00
2013-3-2,68.0,49.8,34.0,27.0,22.6,19.0,56,36,19,30.40,30.20,9,2,15,0.00
2013-3-3,58.0,48.9,39.0,24.0,21.9,18.0,50,35,23,30.21,29.94,16,6,23,0.00
2013-3-4,57.0,46.9,32.0,33.0,26.5,19.0,72,46,30,30.14,29.90,10,4,19,0.00
2013-3-5,58.0,45.3,32.0,34.0,26.8,20.0,84,52,28,30.19,30.05,11,3,19,0.00
2013-3-6,58.0,47.2,37.0,31.0,25.6,22.0,66,44,25,30.08,29.97,14,5,24,0.00
2013-3-7,56.0,44.7,32.0,26.0,23.5,21.0,66,45,27,29.99,29.88,17,7,28,0.00
2013-3-8,46.0,33.7,26.0,35.0,28.6,24.0,94,84,44,29.89,29.69,20,8,32,0.46
2013-3-9,32.0,29.2,26.0,32.0,28.1,24.0,100,95,93,30.07,29.82,13,6,21,0.08
2013-3-10,50.0,38.8,28.0,30.0,26.4,22.0,96,64,37,30.23,30.07,9,3,18,0.08
2013-3-11,60.0,43.8,26.0,27.0,21.8,17.0,75,44,22,30.22,30.09,8,2,12,0.00
2013-3-12,65.0,49.1,32.0,29.0,23.7,19.0,64,40,21,30.23,30.13,7,2,12,0.00
2013-3-13,69.0,52.5,37.0,31.0,26.6,23.0,65,40,19,30.33,30.22,6,2,12,0.00
2013-3-14,75.0,56.4,39.0,32.0,26.1,21.0,52,34,16,30.33,30.20,7,2,14,0.00
2013-3-15,71.0,57.1,44.0,35.0,27.2,24.0,51,34,17,30.24,30.05,15,4,22,0.00
2013-3-16,66.0,57.4,47.0,32.0,26.3,20.0,46,31,20,30.05,29.89,13,5,22,0.00
2013-3-17,66.0,55.1,44.0,29.0,16.1,3.0,50,23,10,30.00,29.87,14,6,23,0.00
2013-3-18,63.0,53.8,45.0,24.0,18.0,7.0,34,24,18,30.07,29.98,12,5,20,0.00
2013-3-19,65.0,54.1,46.0,29.0,24.3,18.0,44,32,23,30.17,30.01,10,4,17,0.00
2013-3-20,60.0,51.8,40.0,34.0,26.9,24.0,54,39,26,30.17,29.93,17,6,25,0.00
2013-3-21,67.0,54.7,41.0,32.0,24.3,11.0,53,33,14,29.93,29.82,15,5,24,0.00
2013-3-22,60.0,48.8,37.0,30.0,16.6,-3.0,49,29,13,29.88,29.77,14,4,26,0.00
2013-3-23,53.0,41.7,30.0,7.0,1.6,-5.0,30,19,12,30.06,29.87,12,5,22,0.00
2013-3-24,58.0,43.5,27.0,18.0,7.9,-1.0,33,23,14,30.07,29.95,10,3,21,0.00
2013-3-25,62.0,48.2,31.0,20.0,13.3,5.0,34,25,19,30.10,30.01,11,3,19,0.00
2013-3-26,63.0,52.2,41.0,23.0,17.7,14.0,35,26,20,30.06,29.96,15,6,32,0.00
2013-3-27,61.0,51.0,39.0,25.0,19.5,16.0,43,30,19,30.07,29.96,13,5,22,0.00
2013-3-28,62.0,51.0,38.0,29.0,23.2,18.0,52,35,24,30.15,30.05,16,5,24,0.00
2013-3-29,68.0,54.2,38.0,31.0,25.7,20.0,59,35,21,30.21,30.13,12,3,17,0.00
2013-3-30,63.0,52.7,43.0,34.0,26.1,-99.9,53,38,26,30.20,30.11,14,3,20,0.00
2013-3-31,66.0,55.3,43.0,33.0,27.8,24.0,55,36,23,30.14,30.02,14,5,25,0.00